PARUS-T1

operational
NORAD ID: 62656 Int'l Des: NNA 2025-009 Owner: TASA/PYRAS Country: J
LEOCIRCULARRETROGRADESSO

About PARUS-T1

Description loading...

Live Position

Loading 3D Globe...

Upcoming Passes

Altitude History

Altitude vs Time

uPlot chart will show altitude changes over time

Two-Line Element Set

1 62656U 25009AZ 25315.20566332 .00019214 00000-0 74299-3 0 9995
2 62656 97.4144 34.1374 0002199 65.8660 294.2808 15.26260780 45694
Epoch: Nov 11, 2025 • Age: 27 hours

Current Status

Altitude 496.6 km
Velocity 7.62 km/s
Sub-Earth Point 64.90°N, 152.06°W
Launch Date Jan 14, 2025
Age 0.8 years
Type other

Technical Details

Classification Payload
Mass 4.00 kg
Dry Mass 4.00 kg
Total Mass 4.00 kg
Length 0.30 m
Diameter 0.10 m
Span 0.30 m
Shape Box
Manufacturer PYRAS
Bus Type Cubesat 3U
Phase Status In Orbit
Owner/State TASA/PYRAS/J

Large Constellations

Loading constellations...